F4NFR-13 Weather Reports


time (UTC)temp
F
wind
direction
speed
knots
gust
knots
rain 1hr
in
rain 24hr
in
rain mn
in
humidity
%
barometer
mb
20260510065411 55 17 9.6 12.2 0.00 0.00 0.00 66 1023.2
20260510064908 55 18 12.2 16.5 0.00 0.00 0.00 67 1022.8
20260510064405 55 78 7.0 9.6 0.00 0.00 0.00 68 1022.8
20260510063903 55 11 13.0 16.5 0.00 0.00 0.00 68 1022.8
20260510063400 55 91 13.9 25.2 0.00 0.00 0.00 69 1023.2
20260510062858 55 79 7.0 12.2 0.00 0.00 0.00 70 1023.2
20260510062355 55 26 13.0 16.5 0.00 0.00 0.00 71 1023.2
20260510061853 55 23 13.0 14.8 0.00 0.00 0.00 71 1023.2
20260510061351 55 62 7.0 9.6 0.00 0.00 0.00 73 1023.2
20260510060849 55 79 6.1 7.8 0.00 0.00 0.00 74 1023.2
20260510060346 55 40 11.3 13.9 0.00 0.00 0.00 76 1023.2
20260510055843 54 52 7.0 9.6 0.00 0.00 0.00 77 1023.2
20260510055343 54 38 9.6 13.9 0.00 0.00 0.00 79 1023.2
20260510054839 54 37 13.0 14.8 0.00 0.00 0.00 80 1023.2
20260510054336 54 105 9.6 13.9 0.00 0.00 0.00 81 1023.2
20260510053834 54 359 10.4 12.2 0.00 0.00 0.00 82 1023.2
20260510053331 52 39 7.8 8.7 0.00 0.00 0.00 83 1023.2
20260510052829 52 34 7.8 11.3 0.00 0.00 0.00 84 1023.2
20260510052326 52 22 7.0 10.4 0.00 0.00 0.00 85 1023.2
20260510051824 52 43 8.7 10.4 0.00 0.00 0.00 84 1023.5
20260510051321 52 56 9.6 11.3 0.00 0.00 0.00 84 1023.5
20260510050317 52 14 4.3 5.2 0.00 0.00 0.00 85 1023.5
20260510045814 52 33 7.0 7.8 0.00 0.00 0.00 85 1023.8
20260510045312 52 45 7.0 8.7 0.00 0.00 0.00 85 1023.8
20260510044810 52 19 9.6 10.4 0.00 0.00 0.00 85 1023.8
20260510044308 52 34 7.0 10.4 0.00 0.00 0.00 85 1023.8
20260510043805 52 21 6.1 7.8 0.00 0.00 0.00 85 1023.8
20260510043303 52 4 7.0 7.8 0.00 0.00 0.00 84 1023.8
20260510042800 52 42 6.1 7.8 0.00 0.00 0.00 84 1023.5
20260510042258 52 23 6.1 6.1 0.00 0.00 0.00 84 1023.5
20260510041756 52 60 5.2 7.8 0.00 0.00 0.00 84 1023.5
20260510041253 52 29 5.2 5.2 0.00 0.00 0.00 84 1023.8
20260510040751 52 47 5.2 7.8 0.00 0.00 0.00 83 1023.8
20260510040253 52 65 8.7 10.4 0.00 0.00 0.00 83 1023.8
20260510035244 52 104 4.3 5.2 0.00 0.00 0.00 82 1023.5
20260510034742 52 34 10.4 12.2 0.00 0.00 0.00 82 1023.5
20260510034240 52 50 7.8 8.7 0.00 0.00 0.00 81 1023.8
20260510033738 52 34 6.1 7.8 0.00 0.00 0.00 81 1023.8
20260510033235 52 41 6.1 7.8 0.00 0.00 0.00 80 1023.8
20260510032733 52 25 4.3 6.1 0.00 0.00 0.00 81 1023.8
20260510032230 52 66 6.1 7.8 0.00 0.00 0.00 80 1023.5
20260510031727 52 40 4.3 7.8 0.00 0.00 0.00 80 1023.8
20260510030722 52 65 7.8 9.6 0.00 0.00 0.00 79 1023.5
20260510030220 52 29 6.1 7.8 0.00 0.00 0.00 78 1023.5
20260510025717 52 359 5.2 7.8 0.00 0.00 0.00 78 1023.5
20260510025215 52 64 5.2 6.1 0.00 0.00 0.00 77 1023.5
20260510024210 52 56 4.3 6.1 0.00 0.00 0.00 76 1023.5
20260510023708 52 30 6.1 7.8 0.00 0.00 0.00 76 1023.5
20260510023206 52 54 2.6 4.3 0.00 0.00 0.00 76 1023.5
20260510022703 52 57 6.1 9.6 0.00 0.00 0.00 76 1023.5
20260510022201 52 65 5.2 6.1 0.00 0.00 0.00 76 1023.5
20260510021700 52 66 5.2 6.1 0.00 0.00 0.00 76 1023.5
20260510021156 52 35 6.1 7.0 0.00 0.00 0.00 76 1023.5
20260510020654 52 56 7.8 9.6 0.00 0.00 0.00 76 1023.5
20260510020151 52 74 6.1 9.6 0.00 0.00 0.00 76 1023.8
20260510015649 52 28 5.2 6.1 0.00 0.00 0.00 76 1023.8
20260510014644 52 91 5.2 7.8 0.00 0.00 0.00 75 1023.8
20260510014142 52 51 2.6 4.3 0.00 0.00 0.00 75 1023.8
20260510013639 52 90 5.2 7.8 0.00 0.00 0.00 75 1023.8
20260510013137 52 42 7.0 9.6 0.00 0.00 0.00 75 1023.8
20260510012635 52 57 6.1 7.8 0.00 0.00 0.00 74 1023.8
20260510012133 52 60 3.5 5.2 0.00 0.00 0.00 75 1023.8
20260510011631 52 69 5.2 6.1 0.00 0.00 0.00 74 1023.8
20260510011127 52 63 7.8 9.6 0.00 0.00 0.00 74 1024.2
20260510010625 52 50 6.1 7.8 0.00 0.00 0.00 75 1024.2
20260510010123 52 91 2.6 6.1 0.00 0.00 0.00 75 1024.2
20260510005621 52 89 5.2 7.8 0.00 0.00 0.00 75 1024.2
20260510004616 52 73 3.5 5.2 0.00 0.00 0.00 76 1024.2
20260510004114 52 65 2.6 4.3 0.00 0.00 0.00 76 1024.2
20260510003611 52 90 5.2 6.1 0.00 0.00 0.00 76 1024.2
20260510003109 52 79 3.5 6.1 0.00 0.00 0.00 76 1024.5
20260510002607 52 37 4.3 6.1 0.00 0.00 0.00 76 1024.5
20260510002104 52 91 1.7 5.2 0.00 0.00 0.00 76 1024.5
20260510001602 52 61 3.5 7.0 0.00 0.00 0.00 76 1024.5
20260510001059 52 45 5.2 7.8 0.00 0.00 0.00 75 1024.9
20260510000557 52 74 5.2 7.8 0.00 0.00 0.00 74 1024.9
20260510000055 52 63 2.6 4.3 0.00 0.00 0.00 75 1024.9
20260509235553 52 100 6.1 8.7 0.00 0.00 0.00 75 1024.9
20260509235051 54 80 5.2 7.8 0.00 0.00 0.00 74 1024.9
20260509234549 54 79 3.5 5.2 0.00 0.00 0.00 74 1024.9
20260509234047 54 95 5.2 7.0 0.00 0.00 0.00 73 1024.9
20260509233544 54 46 5.2 6.1 0.00 0.00 0.00 72 1024.9
20260509233042 54 67 5.2 8.7 0.00 0.00 0.00 71 1024.9
20260509232540 54 64 6.1 6.1 0.00 0.00 0.00 73 1024.9
20260509232038 54 71 2.6 3.5 0.00 0.00 0.00 73 1024.9
20260509231535 54 70 5.2 7.8 0.00 0.00 0.00 72 1024.9
20260509230530 54 51 5.2 6.1 0.00 0.00 0.00 72 1024.9
20260509230028 54 35 3.5 7.8 0.00 0.00 0.00 73 1024.9
20260509225525 54 70 2.6 3.5 0.00 0.00 0.00 73 1024.9
20260509225023 54 60 4.3 6.1 0.00 0.00 0.00 73 1024.9
20260509224521 54 67 4.3 6.1 0.00 0.00 0.00 74 1024.9
20260509224018 54 63 3.5 5.2 0.00 0.00 0.00 74 1024.9
20260509223516 54 39 3.5 7.8 0.00 0.00 0.00 74 1024.9
20260509222510 54 60 4.3 6.1 0.00 0.00 0.00 74 1024.9
20260509222008 54 81 1.7 3.5 0.00 0.00 0.00 74 1024.9
20260509221505 54 25 1.7 3.5 0.00 0.00 0.00 73 1024.9
20260509221003 54 65 1.7 2.6 0.00 0.00 0.00 74 1024.9
20260509220500 54 80 6.1 9.6 0.00 0.00 0.00 73 1024.9
20260509215958 54 62 2.6 3.5 0.00 0.00 0.00 73 1024.9
20260509215456 54 77 1.7 4.3 0.00 0.00 0.00 73 1024.9
20260509214953 54 68 2.6 3.5 0.00 0.00 0.00 73 1024.9
20260509214450 54 72 3.5 5.2 0.00 0.00 0.00 73 1024.9
20260509213948 54 38 1.7 2.6 0.00 0.00 0.00 72 1024.9
20260509213445 54 65 2.6 5.2 0.00 0.00 0.00 72 1024.9
20260509212943 54 91 1.7 5.2 0.00 0.00 0.00 72 1024.9
20260509212441 54 40 4.3 5.2 0.00 0.00 0.00 72 1024.9
20260509211939 54 46 2.6 3.5 0.00 0.00 0.00 72 1024.9
20260509211436 55 76 3.5 5.2 0.00 0.00 0.00 70 1024.9
20260509210934 54 89 2.6 3.5 0.00 0.00 0.00 70 1024.9
20260509210431 55 44 3.5 3.5 0.00 0.00 0.00 70 1024.9
20260509205929 55 62 3.5 6.1 0.00 0.00 0.00 68 1024.9
20260509205427 55 52 7.0 7.8 0.00 0.00 0.00 68 1024.9
20260509204925 55 27 5.2 8.7 0.00 0.00 0.00 68 1024.9
20260509204422 55 28 3.5 5.2 0.00 0.00 0.00 68 1024.9
20260509203920 55 81 1.7 3.5 0.00 0.00 0.00 67 1024.9
20260509203418 55 90 2.6 5.2 0.00 0.00 0.00 66 1024.9
20260509202915 55 110 4.3 6.1 0.00 0.00 0.00 65 1024.9
20260509202413 55 35 3.5 5.2 0.00 0.00 0.00 64 1024.9
20260509201911 55 76 4.3 6.1 0.00 0.00 0.00 64 1024.9
20260509201410 55 37 5.2 7.8 0.00 0.00 0.00 64 1024.9
20260509201408 55 37 5.2 7.8 0.00 0.00 0.00 64 1024.9
20260509200906 55 71 3.5 6.1 0.00 0.00 0.00 64 1024.9
20260509200403 55 74 1.7 2.6 0.00 0.00 0.00 64 1024.5
20260509195901 55 71 2.6 5.2 0.00 0.00 0.00 64 1024.5
20260509195359 55 96 1.7 2.6 0.00 0.00 0.00 64 1024.5
20260509194856 55 96 1.7 2.6 0.00 0.00 0.00 63 1024.5
20260509194353 55 91 1.7 2.6 0.00 0.00 0.00 63 1024.5
20260509193851 57 57 0.9 1.7 0.00 0.00 0.00 61 1024.5
20260509193348 57 79 1.7 2.6 0.00 0.00 0.00 61 1024.5
20260509192846 57 55 2.6 2.6 0.00 0.00 0.00 60 1024.5
20260509192343 57 63 2.6 3.5 0.00 0.00 0.00 59 1024.5
20260509191840 57 35 3.5 6.1 0.00 0.00 0.00 58 1024.5
20260509191338 57 64 3.5 5.2 0.00 0.00 0.00 57 1024.2
20260509190836 59 69 5.2 7.8 0.00 0.00 0.00 56 1024.2
20260509190334 59 75 6.1 7.0 0.00 0.00 0.00 56 1024.2
20260509185831 59 38 5.2 6.1 0.00 0.00 0.00 55 1024.2
20260509185328 59 63 4.3 6.1 0.00 0.00 0.00 55 1024.2
20260509184826 59 80 3.5 5.2 0.00 0.00 0.00 55 1024.2
20260509184323 59 21 7.0 7.8 0.00 0.00 0.00 55 1024.2
20260509183822 59 90 6.1 7.8 0.00 0.00 0.00 55 1024.2
20260509183319 59 43 7.8 7.8 0.00 0.00 0.00 55 1024.2
20260509182817 61 57 7.8 10.4 0.00 0.00 0.00 54 1024.2
20260509182314 61 59 7.8 9.6 0.00 0.00 0.00 54 1023.8
20260509181812 61 81 2.6 4.3 0.00 0.00 0.00 55 1023.8
20260509181309 61 46 4.3 5.2 0.00 0.00 0.00 54 1023.8
20260509180807 61 75 5.2 6.1 0.00 0.00 0.00 53 1023.8
20260509180304 61 69 5.2 8.7 0.00 0.00 0.00 53 1023.8
20260509175802 61 28 8.7 13.9 0.00 0.00 0.00 53 1023.8
20260509175300 61 89 7.0 10.4 0.00 0.00 0.00 52 1023.8
20260509174758 63 57 7.8 10.4 0.00 0.00 0.00 52 1023.8
20260509173753 63 62 10.4 13.0 0.00 0.00 0.00 52 1023.8
20260509173250 63 64 7.8 9.6 0.00 0.00 0.00 53 1023.8
20260509172748 63 75 5.2 6.1 0.00 0.00 0.00 52 1024.2
20260509172246 63 67 9.6 10.4 0.00 0.00 0.00 52 1024.2
20260509171743 63 65 9.6 11.3 0.00 0.00 0.00 52 1024.2
20260509171241 63 80 6.1 7.8 0.00 0.00 0.00 53 1024.2
20260509170237 64 60 8.7 9.6 0.00 0.00 0.00 51 1024.2
20260509165734 64 45 7.0 8.7 0.00 0.00 0.00 52 1024.2
20260509165232 64 27 6.1 7.8 0.00 0.00 0.00 52 1023.8
20260509164729 64 38 6.1 7.8 0.00 0.00 0.00 52 1024.2
20260509164227 64 54 10.4 13.0 0.00 0.00 0.00 53 1023.8
20260509163724 64 39 6.1 8.7 0.00 0.00 0.00 53 1023.8
20260509163222 64 34 7.8 9.6 0.00 0.00 0.00 53 1023.8
20260509162720 64 47 5.2 7.0 0.00 0.00 0.00 53 1023.8
20260509162218 64 51 7.0 9.6 0.00 0.00 0.00 53 1023.8
20260509161715 64 26 13.0 16.5 0.00 0.00 0.00 53 1023.8
20260509161212 64 44 5.2 8.7 0.00 0.00 0.00 52 1023.8
20260509160710 66 40 9.6 12.2 0.00 0.00 0.00 51 1024.2
20260509160208 68 56 5.2 7.0 0.00 0.00 0.00 50 1023.8
20260509155203 66 33 7.0 9.6 0.00 0.00 0.00 51 1023.8
20260509154700 66 27 7.0 13.0 0.00 0.00 0.00 52 1023.8
20260509154158 66 67 7.0 12.2 0.00 0.00 0.00 52 1024.2
20260509153153 66 39 7.8 10.4 0.00 0.00 0.00 51 1024.2
20260509152148 66 66 6.1 7.8 0.00 0.00 0.00 51 1024.2
20260509151646 66 24 7.8 8.7 0.00 0.00 0.00 51 1024.2
20260509151144 66 31 11.3 14.8 0.00 0.00 0.00 50 1024.2
20260509150642 66 24 6.1 6.1 0.00 0.00 0.00 51 1024.2
20260509150139 68 46 6.1 7.8 0.00 0.00 0.00 51 1024.2
20260509145637 68 101 6.1 9.6 0.00 0.00 0.00 50 1024.2
20260509145135 68 41 7.8 11.3 0.00 0.00 0.00 50 1024.2
20260509144632 70 93 5.2 9.6 0.00 0.00 0.00 50 1024.2
20260509144130 70 76 5.2 5.2 0.00 0.00 0.00 49 1024.2
20260509143628 70 73 7.8 8.7 0.00 0.00 0.00 49 1023.8
20260509143125 70 35 9.6 13.0 0.00 0.00 0.00 49 1023.8
20260509142622 68 45 4.3 6.1 0.00 0.00 0.00 50 1023.8
20260509142119 68 85 4.3 6.1 0.00 0.00 0.00 50 1023.8
20260509141617 68 82 3.5 6.1 0.00 0.00 0.00 50 1023.8
20260509141114 68 86 7.0 9.6 0.00 0.00 0.00 47 1023.8
20260509140612 70 42 7.8 10.4 0.00 0.00 0.00 46 1023.8
20260509135607 68 96 5.2 6.1 0.00 0.00 0.00 48 1023.8
20260509135105 68 33 5.2 7.0 0.00 0.00 0.00 48 1024.2
20260509134100 70 84 5.2 6.1 0.00 0.00 0.00 44 1024.2
20260509133558 72 99 3.5 4.3 0.00 0.00 0.00 45 1024.2
20260509132553 70 139 5.2 6.1 0.00 0.00 0.00 45 1024.2
20260509131549 68 90 7.0 9.6 0.00 0.00 0.00 46 1024.2
20260509131046 70 29 5.2 8.7 0.00 0.00 0.00 45 1024.2
20260509130544 70 65 3.5 4.3 0.00 0.00 0.00 44 1024.2
20260509130042 70 90 1.7 5.2 0.00 0.00 0.00 46 1024.2
20260509125540 70 90 3.5 4.3 0.00 0.00 0.00 46 1024.2
20260509125037 68 74 4.3 7.0 0.00 0.00 0.00 47 1024.5
20260509124534 70 41 10.4 13.9 0.00 0.00 0.00 45 1024.5
20260509124032 72 90 4.3 9.6 0.00 0.00 0.00 44 1024.5
20260509123530 72 133 3.5 5.2 0.00 0.00 0.00 45 1024.5
20260509123027 70 66 2.6 5.2 0.00 0.00 0.00 45 1024.5
20260509122524 70 99 3.5 5.2 0.00 0.00 0.00 46 1024.5
20260509121518 70 57 5.2 5.2 0.00 0.00 0.00 47 1024.9
20260509121015 68 85 4.3 5.2 0.00 0.00 0.00 46 1024.9
20260509120513 68 76 5.2 6.1 0.00 0.00 0.00 48 1024.9
20260509120011 70 61 4.3 6.1 0.00 0.00 0.00 48 1024.9
20260509115509 70 72 3.5 5.2 0.00 0.00 0.00 47 1024.9
20260509115006 70 78 5.2 6.1 0.00 0.00 0.00 48 1024.9
20260509114001 70 70 6.1 7.0 0.00 0.00 0.00 46 1024.9
20260509113459 70 82 7.8 9.6 0.00 0.00 0.00 47 1024.9
20260509112956 70 91 6.1 7.8 0.00 0.00 0.00 47 1025.2
20260509112454 70 74 5.2 6.1 0.00 0.00 0.00 49 1025.2
20260509111952 70 93 7.8 9.6 0.00 0.00 0.00 48 1025.2
20260509110946 70 44 5.2 7.8 0.00 0.00 0.00 48 1025.2
20260509110444 68 26 7.8 10.4 0.00 0.00 0.00 48 1025.2
20260509105942 68 34 7.8 10.4 0.00 0.00 0.00 49 1025.6
20260509105439 68 87 5.2 6.1 0.00 0.00 0.00 48 1025.6
20260509104936 68 101 5.2 6.1 0.00 0.00 0.00 47 1025.6
20260509104434 68 107 7.8 11.3 0.00 0.00 0.00 48 1025.6
20260509103931 68 93 5.2 6.1 0.00 0.00 0.00 48 1025.6
20260509103429 68 100 3.5 5.2 0.00 0.00 0.00 48 1025.6
20260509102927 70 114 5.2 7.8 0.00 0.00 0.00 49 1025.6
20260509101922 68 65 5.2 7.8 0.00 0.00 0.00 48 1025.9
20260509101420 68 109 7.8 12.2 0.00 0.00 0.00 47 1025.6
20260509100917 68 157 7.8 9.6 0.00 0.00 0.00 48 1025.6
20260509100414 68 75 8.7 12.2 0.00 0.00 0.00 48 1025.9
20260509095912 68 35 7.8 10.4 0.00 0.00 0.00 47 1025.6
20260509094907 68 32 5.2 7.0 0.00 0.00 0.00 48 1025.6
20260509094404 68 43 5.2 7.8 0.00 0.00 0.00 48 1025.6
20260509093903 68 73 5.2 7.0 0.00 0.00 0.00 47 1025.6
20260509093400 68 95 6.1 7.8 0.00 0.00 0.00 47 1025.6
20260509092857 68 79 2.6 4.3 0.00 0.00 0.00 47 1025.6
20260509092355 66 98 6.1 7.8 0.00 0.00 0.00 48 1025.6
20260509091852 66 24 9.6 10.4 0.00 0.00 0.00 49 1025.6
20260509091350 66 77 7.8 9.6 0.00 0.00 0.00 48 1025.9
20260509090848 66 59 5.2 7.8 0.00 0.00 0.00 48 1025.6
20260509090346 66 107 9.6 11.3 0.00 0.00 0.00 48 1025.6
20260509085844 66 69 6.1 7.8 0.00 0.00 0.00 49 1025.9
20260509085341 66 79 2.6 4.3 0.00 0.00 0.00 49 1025.6
20260509084839 66 99 6.1 7.0 0.00 0.00 0.00 49 1025.6
20260509084337 64 59 6.1 7.0 0.00 0.00 0.00 49 1025.6
20260509083835 64 98 6.1 6.1 0.00 0.00 0.00 49 1025.9
20260509083331 64 83 9.6 13.0 0.00 0.00 0.00 50 1025.9
20260509082829 64 89 4.3 5.2 0.00 0.00 0.00 52 1025.9
20260509081825 64 65 4.3 7.8 0.00 0.00 0.00 53 1025.9
20260509081322 63 71 9.6 12.2 0.00 0.00 0.00 53 1025.9
20260509080820 64 56 6.1 7.0 0.00 0.00 0.00 55 1025.9
20260509080317 64 57 1.7 2.6 0.00 0.00 0.00 59 1025.9
20260509075815 63 65 7.8 8.7 0.00 0.00 0.00 59 1025.9
20260509075313 63 75 5.2 7.0 0.00 0.00 0.00 61 1025.9
20260509074811 63 98 3.5 5.2 0.00 0.00 0.00 61 1025.9
20260509073806 61 52 2.6 2.6 0.00 0.00 0.00 65 1025.9
20260509073303 61 38 3.5 5.2 0.00 0.00 0.00 65 1025.9
20260509072800 61 15 2.6 3.5 0.00 0.00 0.00 66 1025.9
20260509072258 59 65 6.1 7.8 0.00 0.00 0.00 65 1025.9
20260509071755 59 353 5.2 6.1 0.00 0.00 0.00 65 1025.9
20260509071252 59 26 6.1 7.8 0.00 0.00 0.00 66 1025.9
20260509070750 59 74 2.6 4.3 0.00 0.00 0.00 68 1025.9
20260509070247 59 57 1.7 1.7 0.00 0.00 0.00 68 1025.9